Regional Weather Roundup
Issued by NWS

Home | Current Version | Previous Version | Graphics & Text | Print | Product List | Glossary On
Versions: 1 2 3 4 5 6 7 8 9 10 11 12 13 14 15 16 17 18 19 20 21 22 23 24 25 26 27 28
000
ASUS45 KBOI 230710
RWRID

IDAHO REGIONAL WEATHER ROUNDUP
NATIONAL WEATHER SERVICE BOISE ID
1200 AM MST MON JAN 23 2017

NOTE: "FAIR" INDICATES FEW OR NO CLOUDS BELOW 12000 FEET
WITH NO SIGNIFICANT WEATHER AND/OR OBSTRUCTIONS TO VISIBILITY

IDZ012-014-230800-
SOUTHWEST IDAHO


CITY           SKY/WX    TMP DP  RH WIND       PRES   REMARKS
BOISE          PTCLDY    31  27  85 CALM      29.62F
CALDWELL       PTCLDY    24  23  96 N8        29.65F WCI  15
MOUNTAIN HOME  DRIZZLE   29  29 100 N3        29.62F
$$

IDZ016-017-230800-
SOUTHCENTRAL IDAHO


CITY           SKY/WX    TMP DP  RH WIND       PRES   REMARKS
BURLEY         CLOUDY    33  31  92 SE6       29.62F WCI  28
JEROME         CLOUDY    32  30  92 NE12      29.62F WCI  23
TWIN FALLS     CLOUDY    34  29  82 S8        29.61F WCI  27
$$

IDZ019>023-230800-
SOUTHEAST IDAHO


CITY           SKY/WX    TMP DP  RH WIND       PRES   REMARKS
IDAHO FALLS    LGT SNOW  29  29 100 N6        29.68F FOG     WCI  23
POCATELLO      LGT SNOW  32  30  92 E8        29.66F FOG     WCI  25
REXBURG        LGT SNOW  28  28 100 CALM      29.68F VSB 1
$$

IDZ006-010-011-018-031-032-230800-
CENTRAL IDAHO MOUNTAINS


CITY           SKY/WX    TMP DP  RH WIND       PRES   REMARKS
MCCALL         CLEAR     13  10  88 NE3       29.57R
HAILEY         CLOUDY    27  23  86 NW7       29.65R WCI  19
STANLEY          N/A     12  10  92 CALM      29.59F
SALMON         CLOUDY    10   9  92 N6        29.63F WCI   1
CHALLIS        MOCLDY     7   7 100 SW7       29.64R FOG     WCI  -5
$$

IDZ002-004-006-007-026-230800-
NORTHERN IDAHO


CITY           SKY/WX    TMP DP  RH WIND       PRES   REMARKS
LEWISTON       PTCLDY    34  30  85 E6        29.63F WCI  29
LOWELL           N/A     32  30  92 CALM      29.70F
COEUR D`ALENE  LGT SNOW  33  32  96 S6        29.63R FOG     WCI  28
MULLAN PASS    LGT SNOW  25  22  88 VRB5      29.51S FOG     WCI  19
$$




USA.gov is the U.S. government's official web portal to all federal, state and local government web resources and services.